Change the Weather History Date:

Sunday, February 17, 2013

  Actual Average Record
Temperature  
Mean Temperature 53 °F -  
Max Temperature 70 °F 44 °F 80 °F (2011)
Min Temperature 36 °F 26 °F 7 °F (1979)
Degree Days  
Heating Degree Days 12    
Growing Degree Days 3 (Base 50)    
Moisture  
Dew Point 26 °F    
Average Humidity 37    
Maximum Humidity 65    
Minimum Humidity 17    
Precipitation  
Precipitation 0.00 in - - ()
Sea Level Pressure  
Sea Level Pressure 29.87 in    
Wind  
Wind Speed 16 mph (South)    
Max Wind Speed 26 mph    
Max Gust Speed 39 mph    
Visibility 10 miles    
Events      
Averages and records for this station are not official NWS values.
T = Trace of Precipitation, MM = Missing Value Source: NWS Daily Summary

Daily Weather History Graph

Daily Weather History Graph

Search for Another Location

Airport or City:

Trip Planner

Search our weather history database for the weather conditions in past years. The results will help you decide how hot, cold, wet, or windy it might be!

Date:

Astronomy

Feb. 17, 2013 Rise Set
Actual Time 7:14 AM CST 6:14 PM CST
Civil Twilight 6:48 AM CST 6:40 PM CST
Nautical Twilight 6:18 AM CST 7:10 PM CST
Astronomical Twilight 5:49 AM CST 7:40 PM CST
Moon 11:25 AM CST (2/17) 12:55 AM CST (2/17)
Length of Visible Light 11h 52m
Length of Day
11h 00m
Waxing Crescent, 49% of the Moon is Illuminated
Feb 17
Waxing Crescent
Feb 17
First Quarter
Feb 25
Full
Mar 4
Last Quarter
Mar 11
New

Hourly Weather History & Observations

Time (CST) Temp. Windchill Dew Point Humidity Pressure Visibility Wind Dir Wind Speed Gust Speed Precip Events Conditions
12:53 AM 41.0 °F 33.9 °F 26.1 °F 55% 30.06 in 10.0 mi SSW 12.7 mph - N/A   Clear
1:53 AM 41.0 °F 33.5 °F 25.0 °F 53% 30.05 in 10.0 mi SSW 13.8 mph - N/A   Clear
2:53 AM 39.9 °F 32.5 °F 25.0 °F 55% 30.03 in 10.0 mi South 12.7 mph - N/A   Clear
3:53 AM 39.0 °F 31.8 °F 25.0 °F 57% 30.00 in 10.0 mi South 11.5 mph - N/A   Clear
4:53 AM 39.0 °F 31.8 °F 26.1 °F 60% 29.99 in 10.0 mi SSW 11.5 mph - N/A   Clear
5:53 AM 36.0 °F 28.5 °F 25.0 °F 64% 30.00 in 10.0 mi SSW 10.4 mph - N/A   Clear
6:53 AM 37.0 °F 29.3 °F 26.1 °F 65% 29.99 in 10.0 mi South 11.5 mph - N/A   Clear
7:53 AM 39.0 °F 31.4 °F 26.1 °F 60% 29.98 in 10.0 mi South 12.7 mph - N/A   Clear
8:53 AM 44.1 °F 37.1 °F 26.1 °F 49% 29.99 in 10.0 mi SSW 15.0 mph - N/A   Clear
9:53 AM 52.0 °F - 27.0 °F 38% 29.97 in 10.0 mi SSW 17.3 mph - N/A   Clear
10:53 AM 57.0 °F - 28.0 °F 33% 29.95 in 10.0 mi SSW 15.0 mph - N/A   Clear
11:53 AM 62.1 °F - 28.0 °F 28% 29.91 in 10.0 mi SSW 19.6 mph - N/A   Clear
12:53 PM 66.9 °F - 27.0 °F 22% 29.87 in 10.0 mi South 18.4 mph 26.5 mph N/A   Clear
1:53 PM 69.1 °F - 26.1 °F 20% 29.82 in 10.0 mi South 24.2 mph 32.2 mph N/A   Clear
2:53 PM 69.1 °F - 27.0 °F 21% 29.79 in 10.0 mi South 25.3 mph 36.8 mph N/A   Clear
3:53 PM 70.0 °F - 24.1 °F 18% 29.76 in 10.0 mi South 25.3 mph 39.1 mph N/A   Clear
4:53 PM 70.0 °F - 23.0 °F 17% 29.74 in 10.0 mi South 24.2 mph 31.1 mph N/A   Clear
4:58 PM 69.8 °F - 24.8 °F 18% 29.75 in 10.0 mi SSW 20.7 mph 29.9 mph N/A   Clear
5:53 PM 68.0 °F - 24.1 °F 19% 29.74 in 10.0 mi South 17.3 mph 31.1 mph N/A   Clear
6:53 PM 64.0 °F - 24.1 °F 22% 29.74 in 10.0 mi South 19.6 mph - N/A   Clear
6:56 PM 62.6 °F - 24.8 °F 24% 29.74 in 10.0 mi South 20.7 mph - N/A   Clear
7:53 PM 61.0 °F - 24.1 °F 24% 29.73 in 10.0 mi South 21.9 mph - N/A   Clear
8:53 PM 59.0 °F - 26.6 °F 29% 29.72 in 10.0 mi South 26.5 mph 36.8 mph N/A   Clear
9:53 PM 57.0 °F - 28.0 °F 33% 29.70 in 10.0 mi South 25.3 mph 34.5 mph N/A   Clear
11:53 PM 57.0 °F - 30.9 °F 37% 29.70 in 10.0 mi South 23.0 mph 34.5 mph N/A   Clear